Wind_Speed
11 10 9 8 7 7 6 6 6 6 6 6 5 5 4 2 1 1 2 2 3 4 5 5 6 7 8 10 11 12 14 15 16 17 18 18 18 18 19 19 19 19 19 19 19 19 19 20 20
15 14 12 12 11 10 9 8 8 7 6 6 5 4 2 1 1 2 3 4 5 6 7 8 8 9 11 12 13 14 15 16 16 17 17 17 18 18 19 19 20 20 20 21 22 22 22 23 23
15 14 13 12 11 10 9 8 7 6 5 3 2 1 1 2 3 5 6 7 8 9 10 10 11 12 12 13 14 14 15 16 16 16 16 17 17 18 19 19 20 21 22 22 23 24 24 25 26
12 11 10 9 8 7 6 5 4 2 1 1 2 3 4 5 7 8 9 10 10 11 11 12 12 13 13 13 14 14 15 15 15 16 16 17 17 18 18 19 20 21 22 23 24 25 26 27 28
8 7 6 5 4 2 1 0 1 2 3 5 6 8 8 9 10 10 11 11 12 12 12 12 12 13 13 13 13 14 14 14 15 15 16 16 17 18 19 19 20 21 22 23 24 25 26 27 28
4 3 2 2 2 3 4 5 6 7 7 8 9 11 11 12 12 12 12 13 13 13 12 12 12 12 12 13 13 13 14 14 15 15 16 17 18 19 19 20 21 21 22 23 24 24 25 26 28
3 5 5 6 7 8 9 9 10 10 11 11 11 12 13 13 13 13 13 13 13 12 12 12 12 12 12 12 12 13 14 15 16 17 18 18 19 20 21 21 22 23 23 24 24 25 26 26 27
6 8 9 10 11 11 12 12 12 12 13 13 13 13 14 13 13 13 13 13 12 12 11 11 11 11 11 12 12 13 14 16 17 18 19 20 21 22 23 24 25 25 26 26 27 28 28 29 29
9 10 11 12 12 13 13 13 12 13 13 13 13 13 13 13 13 13 13 12 12 11 11 10 10 10 11 11 12 14 15 16 18 19 20 21 22 24 25 26 27 28 29 30 30 31 31 32 32
11 11 13 13 13 13 13 13 12 13 14 13 13 13 13 13 13 12 12 12 11 10 10 10 10 10 11 12 13 14 16 17 19 20 21 22 24 25 27 28 29 30 31 32 33 33 34 35 35
12 12 13 13 12 12 12 12 12 13 14 13 13 13 13 13 12 12 11 11 11 10 10 10 10 10 11 12 14 15 17 18 19 21 22 23 25 26 27 29 30 31 32 33 34 35 36 37 38
12 13 13 13 13 12 12 12 12 14 13 12 13 13 13 13 12 11 11 11 11 11 11 11 11 12 12 14 15 16 17 19 20 22 23 24 25 27 28 30 31 33 34 35 36 37 38 39 40
13 13 14 14 13 13 12 12 13 15 12 12 14 13 13 12 12 12 12 12 12 12 12 13 13 14 15 16 17 18 20 21 23 24 25 26 27 28 30 31 33 35 36 37 38 39 40 41 42
14 14 15 15 15 14 13 13 15 15 13 14 15 14 14 14 14 13 13 13 13 14 14 15 16 17 18 19 20 22 23 24 25 27 28 29 30 31 32 34 36 37 38 39 40 41 42 43 44
16 16 17 17 16 15 13 14 18 15 16 16 16 15 15 16 15 15 15 15 16 16 17 18 18 19 21 22 23 25 26 28 29 30 31 33 34 35 36 37 39 40 41 42 43 44 45 45 46
18 18 18 19 19 17 16 14 21 17 17 17 18 17 17 17 18 18 18 19 19 20 20 21 22 23 24 25 27 28 30 31 32 33 35 36 37 38 39 40 41 43 44 46 47 47 48 48 48
20 20 20 22 21 19 18 14 21 23 20 18 19 20 19 20 20 22 22 22 22 23 24 24 25 27 28 29 30 31 33 34 35 36 38 39 39 40 41 43 44 45 47 49 50 51 51 51 51
22 22 21 24 23 22 20 16 19 25 24 21 21 22 22 22 23 25 24 25 26 26 27 28 29 30 31 32 33 34 36 37 38 40 41 41 42 43 44 46 47 48 50 52 53 53 53 53 53
24 24 24 25 25 24 21 19 20 25 26 24 23 24 24 25 27 27 27 28 29 29 30 31 32 33 34 35 36 37 38 40 41 43 44 45 45 46 47 48 49 51 52 54 55 55 55 56 56
26 26 26 26 26 26 22 18 22 25 26 26 26 27 27 27 29 30 30 31 31 32 33 35 35 37 37 39 40 40 42 43 44 46 47 48 49 49 49 51 52 53 55 57 57 57 57 57 58
26 28 27 27 26 25 24 16 20 24 26 28 28 28 29 30 32 33 33 34 34 35 37 38 39 40 41 42 43 43 45 45 47 48 50 51 52 52 53 53 55 55 57 58 59 59 59 59 59
25 27 28 28 27 25 25 21 20 23 25 28 29 30 31 33 34 36 36 37 37 39 41 41 42 43 44 46 46 47 48 49 50 52 53 54 55 55 55 56 57 58 58 60 60 60 60 60 60
26 27 28 28 27 26 26 24 22 24 24 27 30 31 32 34 36 38 39 40 41 42 43 44 46 47 48 49 50 51 51 52 53 54 55 56 57 58 58 59 60 60 60 61 62 62 62 61 61
27 28 29 29 29 27 26 26 24 25 26 27 29 31 33 34 36 38 40 42 43 45 46 48 49 50 51 52 53 53 54 55 56 57 57 58 59 59 60 62 62 62 61 62 63 63 63 62 62
28 30 32 33 31 30 29 28 25 29 31 31 32 32 33 34 36 37 39 41 43 46 47 49 50 51 53 54 54 55 57 58 59 59 60 60 60 60 61 63 63 62 62 63 64 65 64 64 64
29 31 33 36 36 34 31 30 27 30 33 34 36 36 36 36 36 37 38 40 42 44 46 48 50 52 53 54 55 56 57 59 60 61 61 61 61 61 62 62 63 64 64 65 65 65 65 65 65
31 31 34 37 39 39 37 34 30 31 35 38 40 40 39 38 38 39 40 41 43 44 46 47 49 51 52 54 55 56 58 59 60 60 61 62 63 63 63 63 63 65 65 66 66 66 66 66 66
33 34 37 39 42 45 44 40 35 36 38 40 42 42 41 41 41 42 43 43 44 45 46 47 49 50 52 53 55 55 57 58 60 61 62 62 63 63 64 64 65 66 66 66 67 67 66 66 65
34 36 38 40 43 46 49 47 40 41 42 46 48 47 45 44 44 44 44 44 45 46 47 48 49 51 52 53 54 55 57 59 60 61 61 62 63 64 65 65 66 66 66 66 67 66 65 64 64
37 38 40 42 45 47 50 50 42 43 47 51 51 50 49 48 48 47 47 47 47 48 48 49 49 50 51 52 52 53 55 56 57 59 60 62 63 64 65 66 66 65 65 65 66 65 64 64 64
Wind_Direction
90 92 93 94 96 96 99 101 106 109 110 110 111 113 118 131 162 224 237 250 266 275 281 284 287 290 291 293 295 297 299 300 300 299 299 299 298 298 297 295 294 292 289 287 284 282 279 276 274
86 88 90 91 93 95 95 96 99 101 103 107 111 117 125 157 252 270 273 278 281 285 287 289 290 292 294 296 298 300 301 302 302 301 301 300 300 299 298 297 295 294 292 290 288 286 283 280 278
86 88 89 90 92 94 97 94 93 92 94 96 104 127 231 270 277 281 282 282 284 286 288 290 291 293 295 297 299 301 302 302 303 303 302 302 301 300 299 298 297 296 294 292 290 288 285 283 280
85 88 89 91 93 96 97 96 94 87 73 317 286 281 276 277 279 282 284 284 285 286 288 290 292 294 296 298 300 302 303 304 305 305 304 303 303 303 302 301 299 298 296 294 292 290 288 286 283
79 80 82 84 82 82 81 22 286 274 276 276 277 278 277 278 278 280 282 285 286 287 288 291 293 295 298 300 302 304 305 306 307 307 307 306 306 306 305 304 303 301 299 297 294 292 290 287 285
56 44 35 1 325 306 300 294 289 285 281 278 276 276 277 277 278 279 282 284 286 287 289 291 294 297 300 303 305 306 308 309 310 309 309 309 308 308 307 306 305 304 302 300 297 295 293 291 288
347 331 315 307 300 296 295 293 290 287 285 281 278 276 277 277 276 278 281 283 284 285 289 292 296 299 302 304 306 309 310 311 311 310 309 309 308 307 306 306 305 304 302 300 299 297 295 293 291
321 311 303 301 297 293 291 289 287 285 284 282 279 276 276 276 277 278 279 281 282 284 288 292 296 300 303 305 308 310 311 310 310 309 309 308 307 306 305 304 303 302 300 298 297 296 295 294 293
312 306 300 300 295 290 289 286 283 281 280 279 278 276 275 275 277 277 277 277 279 282 286 290 295 299 302 305 308 309 310 310 309 309 309 308 307 306 305 304 302 301 299 297 296 295 294 294 293
311 305 301 299 294 288 286 284 281 279 279 278 277 276 275 275 275 274 273 273 276 279 284 288 293 297 301 304 306 308 309 309 310 310 310 310 309 308 307 306 304 302 300 298 296 295 294 293 292
312 307 304 301 297 290 285 283 282 279 277 278 276 274 273 272 270 268 268 269 272 276 280 285 289 294 298 302 304 307 308 309 311 311 311 311 311 311 311 309 307 305 303 300 298 296 294 293 291
311 308 307 303 299 293 288 285 283 280 278 278 274 272 270 267 264 263 264 266 269 271 275 280 284 289 294 298 301 304 306 307 309 310 311 312 313 313 313 312 310 308 306 303 301 298 296 294 292
311 310 308 304 301 296 292 289 282 280 283 279 275 272 267 264 262 261 261 263 266 268 271 275 281 286 291 294 298 301 303 303 305 306 308 310 311 313 313 313 312 310 308 306 303 301 298 296 295
310 311 308 305 303 299 296 290 282 282 285 276 274 271 267 264 262 261 262 263 265 268 271 275 280 285 289 292 295 298 300 302 303 304 305 306 308 309 311 312 313 312 311 309 306 304 301 299 297
307 309 307 305 303 300 297 291 283 284 281 277 275 272 268 266 265 264 265 266 267 269 272 275 279 283 286 289 293 296 298 299 301 302 303 304 305 306 308 309 311 311 311 310 308 307 304 302 300
303 305 305 302 301 301 298 291 286 283 278 277 275 272 270 268 267 267 268 268 270 271 272 275 278 281 284 288 291 294 296 298 299 300 301 302 303 304 306 307 308 309 310 311 310 308 306 304 301
297 300 302 300 299 300 298 292 285 285 280 277 275 273 271 270 269 269 270 271 272 273 274 276 277 280 282 286 289 291 294 296 297 298 299 301 302 303 304 305 306 308 309 310 310 308 307 305 302
294 295 298 298 299 300 299 297 283 282 282 279 275 272 271 270 269 270 273 273 273 274 276 276 277 279 282 285 287 289 292 294 296 297 298 299 301 302 302 303 304 306 307 309 309 308 306 305 303
292 293 295 297 298 300 301 301 288 282 282 280 276 273 271 269 269 271 271 271 273 274 275 276 277 279 281 283 285 288 290 292 295 296 297 298 299 300 301 302 303 304 306 307 308 306 306 305 303
291 292 294 296 298 300 301 306 295 287 284 282 278 275 273 270 270 270 269 270 271 273 274 275 277 278 281 282 284 287 289 291 293 295 295 297 298 299 300 301 302 303 304 306 306 306 305 305 304
292 294 295 297 298 301 300 304 297 291 287 284 281 278 275 273 272 271 271 271 272 273 273 275 277 279 281 282 284 286 288 290 292 293 294 296 297 298 298 299 300 301 303 304 305 305 304 304 304
295 295 297 299 300 304 304 306 300 295 292 288 284 281 278 275 274 274 274 273 273 273 275 277 278 279 281 283 285 286 289 291 291 292 294 295 296 297 297 297 298 300 301 302 303 304 304 304 303
297 297 298 300 301 304 305 307 305 297 293 290 287 284 281 279 277 276 276 276 276 276 277 278 279 280 282 284 286 288 289 290 291 292 294 294 294 295 296 296 296 298 300 300 301 303 303 303 303
299 299 299 300 301 302 304 306 307 301 297 293 290 288 286 285 284 283 282 281 281 281 281 281 282 283 284 285 287 288 289 290 291 292 292 293 293 294 294 294 295 297 299 299 301 302 303 304 303
300 301 302 302 302 303 305 307 310 306 302 299 295 293 292 291 290 289 288 287 286 286 286 286 286 286 287 288 289 289 289 290 291 291 291 292 292 293 293 293 295 296 297 298 300 302 304 303 303
300 301 302 303 304 304 305 306 310 307 303 300 297 295 294 295 296 295 294 292 291 290 289 288 288 288 288 289 289 289 289 290 290 290 291 291 292 292 292 292 294 296 297 298 300 302 303 303 303
301 301 302 302 302 303 303 303 307 305 302 299 297 297 298 300 299 298 296 295 293 292 291 290 289 289 289 289 288 289 289 289 290 289 289 290 290 291 292 293 294 295 297 298 300 302 303 302 303
300 302 302 303 304 304 303 304 310 308 303 299 297 298 299 298 297 296 296 295 294 293 292 291 290 289 289 288 288 288 288 288 288 289 290 290 291 292 293 293 293 295 297 298 300 301 302 302 303
299 300 300 301 301 303 303 304 312 308 303 299 298 299 299 298 296 296 295 294 294 293 292 292 291 290 289 289 288 288 287 287 288 289 289 290 291 291 292 293 294 295 297 298 299 300 301 302 302
299 300 301 301 302 302 302 305 310 305 300 299 300 301 301 301 299 298 297 297 296 295 294 293 292 290 290 289 289 289 289 289 289 289 290 290 291 292 293 293 295 296 296 297 299 299 300 300 301
Height
5880 5880 5881 5882 5883 5883 5883 5883 5882 5882 5883 5883 5883 5883 5884 5884 5885 5887 5885 5883 5882 5882 5881 5881 5880 5880 5879 5878 5877 5876 5875 5874 5873 5871 5870 5869 5867 5866 5865 5864 5863 5862 5861 5861 5860 5860 5860 5859 5859
5882 5882 5883 5883 5883 5883 5884 5884 5883 5883 5884 5884 5884 5884 5884 5884 5884 5884 5883 5882 5882 5881 5880 5880 5879 5878 5877 5876 5875 5873 5872 5871 5870 5868 5867 5866 5864 5863 5862 5860 5859 5858 5857 5856 5855 5855 5854 5854 5854
5884 5884 5885 5885 5885 5885 5885 5884 5884 5884 5884 5884 5884 5883 5883 5883 5883 5883 5882 5881 5880 5880 5879 5878 5877 5876 5874 5873 5872 5871 5869 5868 5867 5865 5864 5862 5861 5860 5858 5857 5855 5854 5852 5851 5850 5849 5849 5848 5848
5886 5886 5887 5887 5886 5886 5885 5885 5884 5884 5884 5884 5883 5883 5883 5883 5882 5881 5880 5879 5879 5877 5876 5875 5874 5873 5872 5870 5869 5868 5866 5865 5863 5862 5861 5859 5858 5856 5855 5853 5851 5850 5848 5846 5845 5844 5843 5842 5841
5887 5887 5888 5887 5886 5886 5885 5885 5884 5884 5883 5883 5882 5882 5881 5881 5879 5879 5878 5877 5876 5875 5874 5873 5871 5870 5869 5867 5866 5865 5863 5862 5860 5859 5857 5856 5854 5852 5851 5849 5847 5845 5844 5842 5840 5838 5837 5836 5834
5889 5888 5888 5887 5886 5886 5885 5884 5883 5882 5882 5881 5880 5879 5879 5878 5877 5876 5875 5874 5873 5872 5871 5870 5868 5867 5866 5864 5863 5862 5860 5859 5857 5856 5854 5852 5850 5849 5847 5845 5843 5841 5839 5837 5835 5833 5832 5830 5828
5889 5888 5887 5886 5885 5884 5883 5882 5881 5880 5879 5879 5877 5877 5876 5875 5874 5873 5872 5871 5870 5869 5868 5866 5865 5864 5862 5861 5860 5858 5857 5855 5854 5852 5850 5848 5847 5845 5843 5841 5838 5836 5834 5832 5830 5828 5826 5825 5823
5887 5887 5886 5885 5883 5882 5881 5879 5878 5877 5876 5875 5874 5874 5873 5872 5871 5870 5869 5868 5867 5866 5865 5863 5862 5861 5859 5858 5857 5855 5854 5852 5850 5848 5846 5844 5842 5840 5838 5836 5834 5832 5829 5827 5825 5823 5821 5819 5817
5886 5886 5883 5882 5881 5880 5878 5877 5876 5874 5873 5872 5871 5870 5869 5868 5867 5866 5865 5864 5864 5863 5861 5860 5859 5857 5856 5855 5853 5852 5850 5848 5846 5844 5842 5840 5838 5835 5833 5831 5828 5826 5824 5821 5819 5816 5814 5812 5809
5883 5882 5881 5879 5878 5877 5875 5874 5873 5871 5870 5869 5868 5866 5865 5864 5864 5863 5862 5861 5860 5859 5858 5857 5855 5854 5853 5851 5850 5848 5846 5845 5842 5840 5838 5835 5833 5830 5828 5825 5822 5820 5817 5814 5812 5809 5806 5804 5801
5881 5879 5878 5876 5875 5873 5872 5871 5869 5868 5866 5865 5865 5863 5862 5861 5860 5859 5858 5858 5857 5856 5854 5853 5852 5851 5849 5848 5846 5845 5843 5841 5838 5836 5833 5831 5828 5825 5822 5819 5816 5813 5810 5807 5804 5801 5798 5795 5792
5878 5877 5875 5874 5872 5870 5869 5868 5866 5864 5863 5862 5861 5860 5859 5858 5857 5856 5855 5854 5853 5852 5851 5850 5848 5847 5846 5844 5843 5841 5839 5836 5834 5831 5828 5826 5822 5819 5816 5812 5809 5806 5802 5799 5796 5792 5789 5786 5783
5876 5874 5872 5870 5869 5868 5866 5865 5863 5861 5860 5859 5857 5857 5856 5855 5854 5853 5852 5851 5850 5849 5847 5846 5845 5843 5842 5840 5838 5836 5834 5832 5829 5826 5823 5820 5817 5813 5810 5806 5802 5798 5794 5791 5787 5783 5780 5776 5772
5873 5872 5870 5867 5866 5865 5863 5861 5859 5858 5857 5855 5854 5853 5852 5851 5850 5849 5848 5847 5846 5845 5843 5842 5841 5839 5837 5835 5833 5831 5829 5826 5823 5820 5817 5814 5810 5806 5803 5799 5795 5790 5786 5782 5778 5774 5770 5766 5761
5870 5869 5867 5865 5863 5862 5861 5859 5855 5855 5853 5852 5851 5850 5849 5847 5846 5845 5844 5843 5842 5841 5839 5838 5836 5834 5832 5830 5828 5825 5823 5820 5817 5814 5810 5807 5803 5799 5795 5791 5786 5782 5778 5773 5769 5764 5759 5755 5750
5868 5866 5864 5862 5860 5858 5859 5857 5851 5850 5849 5848 5847 5846 5844 5843 5842 5841 5840 5838 5837 5836 5834 5833 5831 5829 5826 5824 5822 5819 5816 5813 5810 5806 5803 5799 5795 5791 5787 5782 5778 5773 5768 5763 5758 5753 5749 5744 5739
5864 5863 5860 5858 5856 5855 5854 5853 5849 5845 5844 5843 5842 5841 5840 5839 5837 5835 5834 5833 5831 5830 5828 5827 5825 5823 5820 5818 5815 5812 5809 5806 5802 5799 5795 5791 5786 5782 5777 5773 5768 5763 5758 5753 5748 5742 5737 5732 5727
5861 5859 5857 5854 5852 5851 5850 5849 5845 5840 5839 5838 5837 5835 5834 5833 5831 5829 5828 5827 5825 5824 5822 5820 5818 5816 5813 5810 5807 5805 5801 5797 5794 5790 5786 5782 5777 5773 5768 5763 5758 5753 5748 5742 5737 5731 5725 5719 5714
5855 5854 5852 5850 5847 5846 5845 5844 5840 5835 5833 5832 5831 5829 5828 5826 5824 5823 5822 5820 5818 5816 5814 5812 5810 5808 5805 5802 5799 5796 5793 5789 5785 5781 5776 5772 5768 5763 5758 5753 5747 5742 5737 5731 5725 5719 5713 5707 5701
5850 5848 5847 5845 5843 5841 5841 5839 5833 5830 5827 5825 5824 5822 5820 5819 5817 5815 5814 5812 5811 5809 5806 5804 5801 5799 5796 5793 5790 5787 5783 5780 5776 5771 5766 5761 5757 5752 5747 5742 5736 5730 5725 5719 5713 5706 5700 5693 5687
5845 5842 5841 5840 5838 5836 5835 5836 5829 5825 5821 5819 5817 5815 5813 5811 5809 5807 5806 5804 5802 5800 5797 5795 5792 5789 5786 5783 5780 5777 5773 5769 5765 5760 5755 5751 5746 5741 5736 5730 5724 5718 5712 5706 5700 5693 5687 5680 5673
5839 5837 5835 5834 5832 5831 5829 5828 5826 5820 5815 5812 5810 5807 5805 5803 5801 5799 5797 5796 5793 5791 5788 5785 5782 5779 5776 5772 5769 5766 5762 5759 5754 5749 5745 5739 5734 5729 5724 5718 5712 5706 5700 5693 5687 5680 5674 5666 5659
5834 5831 5830 5828 5826 5825 5823 5821 5820 5815 5811 5806 5802 5800 5797 5795 5793 5791 5788 5787 5784 5782 5779 5776 5772 5769 5765 5762 5758 5755 5751 5747 5742 5737 5733 5727 5721 5716 5710 5704 5698 5692 5686 5680 5673 5667 5660 5653 5645
5828 5826 5824 5822 5821 5820 5818 5815 5813 5808 5804 5800 5796 5793 5790 5788 5786 5783 5780 5778 5775 5772 5769 5766 5762 5759 5755 5751 5747 5743 5739 5735 5730 5725 5720 5714 5708 5703 5697 5690 5684 5679 5672 5665 5659 5652 5645 5638 5630
5823 5820 5817 5815 5814 5813 5811 5808 5807 5801 5796 5792 5789 5786 5783 5781 5778 5776 5773 5769 5766 5763 5759 5756 5752 5748 5744 5740 5736 5731 5726 5721 5716 5711 5706 5700 5694 5689 5683 5675 5670 5664 5658 5651 5644 5637 5630 5622 5614
5817 5815 5812 5808 5805 5804 5803 5801 5801 5795 5789 5784 5780 5778 5776 5774 5771 5768 5764 5760 5756 5753 5749 5745 5741 5737 5732 5727 5723 5718 5713 5707 5702 5697 5691 5685 5680 5674 5667 5661 5655 5649 5643 5636 5628 5621 5614 5606 5598
5811 5809 5805 5801 5797 5795 5794 5794 5794 5788 5781 5776 5771 5768 5767 5765 5761 5757 5753 5749 5745 5741 5737 5733 5728 5724 5719 5714 5709 5704 5698 5693 5688 5681 5675 5670 5664 5658 5652 5646 5640 5633 5627 5620 5613 5606 5598 5590 5582
5805 5802 5798 5793 5788 5784 5782 5783 5785 5778 5772 5767 5762 5760 5758 5755 5751 5747 5742 5738 5733 5729 5725 5720 5715 5710 5705 5700 5694 5689 5684 5678 5672 5666 5661 5655 5648 5642 5636 5631 5624 5618 5611 5604 5597 5590 5582 5574 5566
5799 5796 5791 5786 5782 5776 5770 5773 5774 5767 5760 5754 5751 5749 5746 5743 5740 5735 5731 5726 5722 5717 5712 5707 5702 5696 5691 5685 5680 5674 5669 5662 5656 5651 5645 5639 5633 5627 5620 5614 5608 5602 5595 5588 5581 5574 5566 5558 5550
5790 5787 5783 5779 5773 5767 5761 5762 5763 5756 5748 5742 5738 5735 5732 5729 5725 5721 5717 5712 5708 5703 5698 5693 5687 5682 5676 5671 5665 5659 5653 5647 5641 5635 5629 5623 5617 5611 5604 5598 5592 5586 5579 5572 5565 5557 5550 5542 5534